Powrót do katalogu

CZ-6A DEB

AktywnySSO
NORAD 54590·DEBRIS·🇨🇳 China

Wystrzelony Nov 11, 2022 z Taiyuan Satellite Launch Center

Loading…

Następne Przeloty (najbliższe 24 godziny)

TLE

ŚwieżeSource: Space-Track

Epoka: Sep 14, 2026, 11:17 UTC

1 54590U 22151MQ  26257.47033092  .00002368  00000-0  77526-3 0  9993
2 54590  98.6061 267.8279 0068184 164.6796 195.6476 14.38077836199949

Śledź CZ-6A DEB w czasie rzeczywistym z AllMySat

Download on the App Store